Location: Chisholm
(54.9102°N, 114.1701°W)
Time: 11:42:41
(UTC+00:00)

N. Korean satellite - Pass Details

Date: 06 December 2021
Orbit: 447 x 491 km, 97.3° (Epoch: 25 January)

Event Time Altitude Azimuth Distance (km) Brightness Sun altitude
Rises 00:25:08 0° 187° (S) 2,519 10.7 -9.8°
Reaches altitude 10° 00:27:20 10° 197° (SSW) 1,637 9.9 -10.1°
Maximum altitude 00:30:33 33° 263° (W) 808 8.4 -10.5°
Drops below altitude 10° 00:33:45 10° 330° (NNW) 1,626 9.3 -10.9°
Sets 00:35:56 0° 340° (NNW) 2,498 10.2 -11.2°
